(203700) = 2005 ER110 = 2008 UG186 = 2003 YP52 = 2002 OG31 = 2005 EC329

Discovered at Palomar on 2002-07-17 by NEAT.

Orbit

Orbit type: Main Belt

Note: WebGL enabled browser required.

epoch2023-09-13.0
epoch JD2460200.5
perihelion date2018-07-24.74104
perihelion JD2458324.24104
argument of perihelion (°)267.34242
ascending node (°)93.51811
inclination (°)1.10280
eccentricity0.2045289
perihelion distance (AU)2.3686359
Tisserand w.r.t. Jupiter3.2
ΔV w.r.t. Earth (km/sec)9.7
semimajor axis (AU)2.9776518
mean anomaly (°)359.90325
mean daily motion (°/day)0.19181960
aphelion distance (AU)3.587
period (years)5.14
P-vector [x]0.99970254
P-vector [y]0.02141635
P-vector [z]-0.01166960
Q-vector [x]-0.01502714
Q-vector [y]0.91773307
Q-vector [z]0.39691333
absolute magnitude16.41
phase slope0.15
uncertainty0
referenceMPEC 2024-A34
observations used363
oppositions14
arc length (days)11386
first opposition used1992
last opposition used2023
residual rms (arc-secs)0.77
perturbers coarse indicatorM-v
perturbers precise indicator003Ek
first observation date used1992-10-04.0
last observation date used2023-12-07.0
computer nameMPCLINUX
JD of orbit computation2456639.791123
perihelion JD uncertainty (days)9.9502E-05
argument of perihelion uncertainty (°)2.9965E-04
ascending node uncertainty (°)2.9853E-04
inclination uncertainty (°)5.8978E-06
eccentricity uncertainty 6.9213E-08
perihelion distance uncertainty (AU)1.9684E-07
Minimum Orbit Intersection Distances (in AU)
for orbit epoch: 2460200.5, reference: E2024-A34
Mercury2.00358
Venus1.64287
Earth1.36522
Mars0.97124
Jupiter1.85661
Saturn5.82222
Uranus14.874
Neptune27.0168

Observations

379 total observations over interval: 1992 10 04.31091 – 2023 12 07.268737
These data are available for download (format description).

Date (UT) J2000 RA J2000 Dec Magn Location Ref
1992 10 04.31091 22 56 43.76 -08 40 32.5 19.9 V 691 – Steward Observatory, Kitt Peak-Spacewatch MPS 267423
1992 10 04.32971 22 56 43.29 -08 40 35.0   691 – Steward Observatory, Kitt Peak-Spacewatch MPS 267423
1992 10 04.34818 22 56 42.71 -08 40 36.5   691 – Steward Observatory, Kitt Peak-Spacewatch MPS 267423
2002 07 14.32412 20 55 55.78 -18 15 58.6 20.1 R 644 – Palomar Mountain/NEAT MPS 265169
2002 07 14.34307 20 55 55.01 -18 16 02.6 19.7 R 644 – Palomar Mountain/NEAT MPS 265169
2002 07 14.37344 20 55 53.78 -18 16 08.9 19.6 R 644 – Palomar Mountain/NEAT MPS 265169
2002 07 17.30495 20 53 55.43 -18 25 54.6 19.3 R 644 – Palomar Mountain/NEAT MPS 265169
2002 07 17.36913 20 53 52.62 -18 26 08.0 19.7 R 644 – Palomar Mountain/NEAT MPS 265169
2002 07 17.43240 20 53 49.84 -18 26 20.9 19.6 R 644 – Palomar Mountain/NEAT MPS 265169
2002 08 08.23764 20 36 20.94 -19 44 11.8 19.4 R 644 – Palomar Mountain/NEAT MPS 265169
2002 08 08.25894 20 36 19.88 -19 44 15.7 19.2 R 644 – Palomar Mountain/NEAT MPS 265169
2002 08 08.28028 20 36 18.78 -19 44 20.1   644 – Palomar Mountain/NEAT MPS 265169
2002 08 17.16331 20 29 24.56 -20 11 39.7   644 – Palomar Mountain/NEAT MPS 265169
2002 08 17.18434 20 29 23.65 -20 11 43.2   644 – Palomar Mountain/NEAT MPS 265169
2002 08 17.20517 20 29 22.68 -20 11 47.1   644 – Palomar Mountain/NEAT MPS 265169
2002 08 18.18108 20 28 41.14 -20 14 24.7 19.9 R 644 – Palomar Mountain/NEAT MPS 265169
2002 08 18.20190 20 28 40.25 -20 14 28.7 19.9 R 644 – Palomar Mountain/NEAT MPS 265169
2002 08 18.22270 20 28 39.32 -20 14 32.1 19.6 R 644 – Palomar Mountain/NEAT MPS 265169
2002 08 27.14735 20 23 10.11 -20 34 45.7   644 – Palomar Mountain/NEAT MPS 265169
2002 08 27.16810 20 23 09.44 -20 34 48.1 19.9 R 644 – Palomar Mountain/NEAT MPS 265169
2002 08 27.18916 20 23 08.75 -20 34 50.3 19.5 R 644 – Palomar Mountain/NEAT MPS 265169
2002 08 29.21037 20 22 08.87 -20 38 22.0 19.7 R 644 – Palomar Mountain/NEAT MPS 265169
2002 08 29.21280 20 22 08.76 -20 38 22.0 20.2 R 644 – Palomar Mountain/NEAT MPS 265169
2002 08 29.23164 20 22 08.22 -20 38 24.0 19.6 R 644 – Palomar Mountain/NEAT MPS 265169
2002 08 29.23399 20 22 08.14 -20 38 24.4 19.6 R 644 – Palomar Mountain/NEAT MPS 265169
2002 08 29.25274 20 22 07.57 -20 38 26.1   644 – Palomar Mountain/NEAT MPS 265169
2002 08 29.25528 20 22 07.50 -20 38 26.4 19.5 R 644 – Palomar Mountain/NEAT MPS 265169
2003 12 19.17475 05 27 38.23 +22 57 18.8 20.7 V 291 – LPL/Spacewatch II MPS 94928
2003 12 19.19961 05 27 36.75 +22 57 18.2 20.1 V 291 – LPL/Spacewatch II MPS 94928
2003 12 19.22444 05 27 35.30 +22 57 18.0 20.9 V 291 – LPL/Spacewatch II MPS 94928
2003 12 21.26607 05 25 38.70 +22 56 32.5 19.7   704 – Lincoln Laboratory ETS, New Mexico MPS 94928
2003 12 21.28010 05 25 37.86 +22 56 32.8 20.7   704 – Lincoln Laboratory ETS, New Mexico MPS 94928
2003 12 21.30683 05 25 36.28 +22 56 31.7 19.9   704 – Lincoln Laboratory ETS, New Mexico MPS 94928
2003 12 21.32013 05 25 35.49 +22 56 31.1 20.1   704 – Lincoln Laboratory ETS, New Mexico MPS 94928
2005 03 04.29671 10 22 22.09 +11 37 01.5 21.4 R G96 – Mt. Lemmon Survey MPS 129225
2005 03 04.30213 10 22 21.87 +11 37 02.7 19.9 R G96 – Mt. Lemmon Survey MPS 129225
2005 03 04.30751 10 22 21.64 +11 37 04.3 20.8 R G96 – Mt. Lemmon Survey MPS 129225
2005 03 04.31292 10 22 21.39 +11 37 05.6 20.7 R G96 – Mt. Lemmon Survey MPS 129225
2005 03 10.27582 10 17 58.58 +12 01 50.9 20.9 R G96 – Mt. Lemmon Survey MPC 64975
2005 03 10.28241 10 17 58.33 +12 01 52.1 21.3 R G96 – Mt. Lemmon Survey MPC 64975
2005 03 10.28903 10 17 58.05 +12 01 53.5 21.1 R G96 – Mt. Lemmon Survey MPC 64975
2005 03 10.29562 10 17 57.75 +12 01 55.6 21.5 R G96 – Mt. Lemmon Survey MPC 64975
2008 09 24.44546 04 43 56.46 +21 20 22.7 20.5 V G96 – Mt. Lemmon Survey MPS 267423
2008 09 24.45396 04 43 56.71 +21 20 23.1 21.0 V G96 – Mt. Lemmon Survey MPS 267423
2008 09 24.46249 04 43 56.92 +21 20 23.4 20.4 V G96 – Mt. Lemmon Survey MPS 267423
2008 09 24.47123 04 43 57.18 +21 20 24.0 20.6 V G96 – Mt. Lemmon Survey MPS 267423
2008 10 24.40245 04 45 50.83 +21 24 00.5 20.4 V 691 – Steward Observatory, Kitt Peak-Spacewatch MPS 263550
2008 10 24.42014 04 45 50.37 +21 23 59.6 20.3 V 691 – Steward Observatory, Kitt Peak-Spacewatch MPS 263550
2008 10 24.43784 04 45 49.97 +21 23 59.1 20.6 V 691 – Steward Observatory, Kitt Peak-Spacewatch MPS 263550
2008 10 28.38814 04 44 07.03 +21 21 18.6 20.6 V 691 – Steward Observatory, Kitt Peak-Spacewatch MPS 263550
2008 10 28.40586 04 44 06.48 +21 21 17.7 20.7 V 691 – Steward Observatory, Kitt Peak-Spacewatch MPS 263550
2008 10 28.42358 04 44 05.92 +21 21 16.8 20.8 V 691 – Steward Observatory, Kitt Peak-Spacewatch MPS 263550
2008 11 09.42920 04 36 24.23 +21 08 41.2 20.0 V 691 – Steward Observatory, Kitt Peak-Spacewatch MPS 267423
2008 11 09.44685 04 36 23.37 +21 08 39.5 20.2 V 691 – Steward Observatory, Kitt Peak-Spacewatch MPS 267423
2008 11 09.46449 04 36 22.52 +21 08 38.2 20.1 V 691 – Steward Observatory, Kitt Peak-Spacewatch MPS 267423
2008 11 18.26637 04 28 56.69 +20 55 30.6 19.9 V 691 – Steward Observatory, Kitt Peak-Spacewatch MPS 267423
2008 11 18.28401 04 28 55.71 +20 55 29.1 19.8 V 691 – Steward Observatory, Kitt Peak-Spacewatch MPS 267423
2008 11 18.30163 04 28 54.72 +20 55 27.2 19.8 V 691 – Steward Observatory, Kitt Peak-Spacewatch MPS 267423
2008 11 23.97199 04 23 39.99 +20 45 37.7 19.9 V J75 – OAM Observatory, La Sagra MPS 266391
2008 11 23.98523 04 23 39.21 +20 45 37.0 19.5 V J75 – OAM Observatory, La Sagra MPS 266391
2008 11 23.99844 04 23 38.54 +20 45 35.5 19.7 V J75 – OAM Observatory, La Sagra MPS 266391
2008 11 24.25739 04 23 23.93 +20 45 08.7 19.7   704 – Lincoln Laboratory ETS, New Mexico MPS 266391
2008 11 24.26992 04 23 23.16 +20 45 07.1 20.1   704 – Lincoln Laboratory ETS, New Mexico MPS 266391
2008 11 24.29516 04 23 21.65 +20 45 04.7 20.1   704 – Lincoln Laboratory ETS, New Mexico MPS 266391
2008 11 24.30815 04 23 21.00 +20 45 02.6 19.8   704 – Lincoln Laboratory ETS, New Mexico MPS 266391
2008 11 25.98947 04 21 45.80 +20 41 58.8 18.9 V J75 – OAM Observatory, La Sagra MPS 267423
2008 11 26.00271 04 21 45.05 +20 41 57.6 19.4 V J75 – OAM Observatory, La Sagra MPS 267423
2008 11 26.01589 04 21 44.32 +20 41 56.2 19.3 V J75 – OAM Observatory, La Sagra MPS 267423
2008 12 01.27005 04 16 47.66 +20 32 13.8 20.3   704 – Lincoln Laboratory ETS, New Mexico MPS 267423
2008 12 01.28269 04 16 47.03 +20 32 12.1 20.7   704 – Lincoln Laboratory ETS, New Mexico MPS 267423
2008 12 01.29530 04 16 46.25 +20 32 10.3 19.8   704 – Lincoln Laboratory ETS, New Mexico MPS 267423
2008 12 01.30798 04 16 45.73 +20 32 08.0 20.4   704 – Lincoln Laboratory ETS, New Mexico MPS 267423
2008 12 21.32023 04 00 44.49 +19 59 22.9 20.0 V G96 – Mt. Lemmon Survey MPS 269208
2008 12 21.32565 04 00 44.28 +19 59 22.2 19.9 V G96 – Mt. Lemmon Survey MPS 269208
2008 12 21.33102 04 00 44.06 +19 59 22.0 19.9 V G96 – Mt. Lemmon Survey MPS 269208
2008 12 21.33653 04 00 43.84 +19 59 21.6 19.9 V G96 – Mt. Lemmon Survey MPS 269208
2009 02 01.09923 03 58 07.50 +20 11 50.0 21.1 V G96 – Mt. Lemmon Survey MPS 276275
2009 02 01.10475 03 58 07.60 +20 11 50.7 21.0 V G96 – Mt. Lemmon Survey MPS 276275
2009 02 01.11015 03 58 07.86 +20 11 51.0 20.9 V G96 – Mt. Lemmon Survey MPS 276275
2009 02 01.11568 03 58 08.00 +20 11 50.5 21.5 V G96 – Mt. Lemmon Survey MPS 276275
2010 02 13.354757 09 55 10.074 +13 57 42.89 21.80 g F51 – Pan-STARRS 1, Haleakala MPS 320531
2010 02 13.364731 09 55 09.570 +13 57 45.72 21.66 g F51 – Pan-STARRS 1, Haleakala MPS 320531
2010 02 14.31315 09 54 23.43 +14 01 56.1 20.7 V G96 – Mt. Lemmon Survey MPS 316513
2010 02 14.31984 09 54 23.07 +14 01 57.9 20.9 V G96 – Mt. Lemmon Survey MPS 316513
2010 02 14.32660 09 54 22.78 +14 01 59.7 21.0 V G96 – Mt. Lemmon Survey MPS 316513
2010 02 14.33330 09 54 22.39 +14 02 01.1 20.7 V G96 – Mt. Lemmon Survey MPS 316513
2010 02 14.34005 09 54 22.06 +14 02 03.9 21.1 V G96 – Mt. Lemmon Survey MPS 316513
2010 02 15.43751 09 53 28.68 +14 06 51.7 20.9 V G96 – Mt. Lemmon Survey MPS 316513
2010 02 15.44397 09 53 28.35 +14 06 53.5 21.4 V G96 – Mt. Lemmon Survey MPS 316513
2010 02 15.45047 09 53 28.06 +14 06 54.5 20.8 V G96 – Mt. Lemmon Survey MPS 316513
